Time,TemperatureF,DewpointF,PressureIn,WindDirection,WindDirectionDegrees,WindSpeedMPH,WindSpeedGustMPH,Humidity,HourlyPrecipIn,Conditions,Clouds,dailyrainin,SoftwareType,DateUTC
2013-04-30 00:00:00,63.2,57.3,29.92,West,277,0.0,0.0,81,0.00,,---,0.00,VWS V14.00,2013-04-30 04:00:00,
2013-04-30 00:01:00,63.2,57.3,29.92,West,277,0.0,0.0,81,0.00,,---,0.00,VWS V14.00,2013-04-30 04:01:00,
2013-04-30 00:03:00,62.7,57.5,29.92,SW,236,0.0,0.0,83,0.00,,---,0.00,VWS V14.00,2013-04-30 04:03:00,
2013-04-30 00:04:00,62.5,57.6,29.92,South,171,2.2,2.7,84,0.00,,---,0.00,VWS V14.00,2013-04-30 04:04:00,
2013-04-30 00:09:00,61.8,58.5,29.92,SW,231,0.0,2.7,89,0.00,,---,0.00,VWS V14.00,2013-04-30 04:09:00,
2013-04-30 00:14:00,61.2,58.6,29.92,SW,231,0.0,0.0,91,0.00,,---,0.00,VWS V14.00,2013-04-30 04:14:00,
2013-04-30 00:19:00,60.9,58.5,29.92,SW,231,0.0,0.0,92,0.00,,---,0.00,VWS V14.00,2013-04-30 04:19:00,
2013-04-30 00:24:00,60.5,58.8,29.92,SW,217,0.0,4.0,94,0.00,,---,0.00,VWS V14.00,2013-04-30 04:24:00,
2013-04-30 00:29:00,60.9,60.0,29.92,South,169,0.0,4.0,97,0.00,,---,0.00,VWS V14.00,2013-04-30 04:29:00,
2013-04-30 00:34:00,60.7,59.6,29.92,SSW,213,2.7,3.1,96,0.00,,---,0.00,VWS V14.00,2013-04-30 04:34:00,
2013-04-30 00:39:00,60.5,59.4,29.92,SSW,201,0.0,3.1,96,0.00,,---,0.00,VWS V14.00,2013-04-30 04:39:00,
2013-04-30 00:44:00,60.3,59.5,29.92,SSW,201,0.0,0.0,97,0.00,,---,0.00,VWS V14.00,2013-04-30 04:44:00,
2013-04-30 00:50:00,60.0,59.4,29.92,SSW,201,0.0,0.0,98,0.00,,---,0.00,VWS V14.00,2013-04-30 04:50:00,
2013-04-30 00:55:00,59.6,59.3,29.92,SSW,201,0.0,0.0,99,0.00,,---,0.00,VWS V14.00,2013-04-30 04:55:00,
2013-04-30 01:00:00,59.4,59.4,29.92,South,188,0.0,0.0,100,0.00,,---,0.00,VWS V14.00,2013-04-30 05:00:00,
2013-04-30 01:05:00,59.3,59.3,29.92,South,188,0.0,0.0,100,0.00,,---,0.00,VWS V14.00,2013-04-30 05:05:00,
2013-04-30 01:10:00,59.3,59.3,29.92,South,188,0.0,0.0,100,0.00,,---,0.00,VWS V14.00,2013-04-30 05:10:00,
2013-04-30 01:15:00,59.3,59.3,29.92,South,188,0.0,0.0,100,0.00,,---,0.00,VWS V14.00,2013-04-30 05:15:00,
2013-04-30 01:20:00,59.1,59.1,29.92,South,188,0.0,0.0,100,0.00,,---,0.00,VWS V14.00,2013-04-30 05:20:00,
2013-04-30 01:25:00,59.1,59.1,29.92,South,188,0.0,0.0,100,0.00,,---,0.00,VWS V14.00,2013-04-30 05:25:00,
2013-04-30 01:30:00,59.1,59.1,29.92,South,188,0.0,0.0,100,0.00,,---,0.00,VWS V14.00,2013-04-30 05:30:00,
2013-04-30 01:35:00,58.7,58.7,29.92,South,188,0.0,0.0,100,0.00,,---,0.00,VWS V14.00,2013-04-30 05:35:00,
2013-04-30 01:40:00,58.7,58.7,29.92,South,188,0.0,0.0,100,0.00,,---,0.00,VWS V14.00,2013-04-30 05:40:00,
2013-04-30 01:45:00,58.5,58.5,29.92,South,188,0.0,0.0,100,0.00,,---,0.00,VWS V14.00,2013-04-30 05:45:00,
2013-04-30 01:51:00,58.4,58.4,29.92,SSW,199,0.0,0.0,100,0.00,,---,0.00,VWS V14.00,2013-04-30 05:51:00,
2013-04-30 01:56:00,58.2,58.2,29.92,SE,125,0.0,0.0,100,0.00,,---,0.00,VWS V14.00,2013-04-30 05:56:00,
2013-04-30 02:01:00,58.2,58.2,29.92,SE,125,0.0,0.0,100,0.00,,---,0.00,VWS V14.00,2013-04-30 06:01:00,
2013-04-30 02:06:00,58.2,58.2,29.92,SE,125,0.0,0.0,100,0.00,,---,0.00,VWS V14.00,2013-04-30 06:06:00,
2013-04-30 02:11:00,58.4,58.4,29.92,SE,125,0.0,0.0,100,0.00,,---,0.00,VWS V14.00,2013-04-30 06:11:00,
2013-04-30 02:16:00,58.4,58.4,29.92,SE,125,0.0,0.0,100,0.00,,---,0.00,VWS V14.00,2013-04-30 06:16:00,
2013-04-30 02:21:00,58.4,58.4,29.92,SE,125,0.0,0.0,100,0.00,,---,0.00,VWS V14.00,2013-04-30 06:21:00,
2013-04-30 02:26:00,58.2,58.2,29.92,SE,125,0.0,0.0,100,0.00,,---,0.00,VWS V14.00,2013-04-30 06:26:00,
2013-04-30 02:31:00,58.2,58.2,29.92,SE,125,0.0,0.0,100,0.00,,---,0.00,VWS V14.00,2013-04-30 06:31:00,
2013-04-30 02:36:00,58.0,58.0,29.92,SE,125,0.0,0.0,100,0.00,,---,0.00,VWS V14.00,2013-04-30 06:36:00,
2013-04-30 02:41:00,57.8,57.8,29.89,SE,125,0.0,0.0,100,0.00,,---,0.00,VWS V14.00,2013-04-30 06:41:00,
2013-04-30 02:47:00,57.6,57.6,29.89,SE,138,0.0,0.0,100,0.00,,---,0.00,VWS V14.00,2013-04-30 06:47:00,
2013-04-30 02:52:00,57.3,57.3,29.89,SW,222,0.0,0.0,100,0.00,,---,0.00,VWS V14.00,2013-04-30 06:52:00,
2013-04-30 02:57:00,57.1,57.1,29.92,SW,222,0.0,0.0,100,0.00,,---,0.00,VWS V14.00,2013-04-30 06:57:00,
2013-04-30 03:02:00,57.1,57.1,29.92,SW,222,0.0,0.0,100,0.00,,---,0.00,VWS V14.00,2013-04-30 07:02:00,
2013-04-30 03:07:00,56.9,56.9,29.92,SW,222,0.0,0.0,100,0.00,,---,0.00,VWS V14.00,2013-04-30 07:07:00,
2013-04-30 03:12:00,56.7,56.7,29.92,SW,222,0.0,0.0,100,0.00,,---,0.00,VWS V14.00,2013-04-30 07:12:00,
2013-04-30 03:17:00,56.6,56.6,29.92,SW,222,0.0,0.0,100,0.00,,---,0.00,VWS V14.00,2013-04-30 07:17:00,
2013-04-30 03:22:00,56.6,56.6,29.92,SW,222,0.0,0.0,100,0.00,,---,0.00,VWS V14.00,2013-04-30 07:22:00,
2013-04-30 03:27:00,56.7,56.7,29.92,SW,222,0.0,0.0,100,0.00,,---,0.00,VWS V14.00,2013-04-30 07:27:00,
2013-04-30 03:32:00,56.9,56.9,29.92,SW,222,0.0,0.0,100,0.00,,---,0.00,VWS V14.00,2013-04-30 07:32:00,
2013-04-30 03:38:00,56.7,56.7,29.92,SW,222,0.0,0.0,100,0.00,,---,0.00,VWS V14.00,2013-04-30 07:38:00,
2013-04-30 03:43:00,56.6,56.6,29.92,SW,222,0.0,0.0,100,0.00,,---,0.00,VWS V14.00,2013-04-30 07:43:00,
2013-04-30 03:48:00,56.4,56.4,29.92,SW,222,0.0,0.0,100,0.00,,---,0.00,VWS V14.00,2013-04-30 07:48:00,
2013-04-30 03:53:00,56.2,56.2,29.92,SW,222,0.0,0.0,100,0.00,,---,0.00,VWS V14.00,2013-04-30 07:53:00,
2013-04-30 03:58:00,56.2,56.2,29.92,SW,222,0.0,0.0,100,0.00,,---,0.00,VWS V14.00,2013-04-30 07:58:00,
2013-04-30 04:03:00,56.2,56.2,29.92,SW,222,0.0,0.0,100,0.00,,---,0.00,VWS V14.00,2013-04-30 08:03:00,
2013-04-30 04:08:00,56.2,56.2,29.92,SW,222,0.0,0.0,100,0.00,,---,0.00,VWS V14.00,2013-04-30 08:08:00,
2013-04-30 04:13:00,56.2,56.2,29.92,SW,222,0.0,0.0,100,0.00,,---,0.00,VWS V14.00,2013-04-30 08:13:00,
2013-04-30 04:18:00,56.2,56.2,29.92,SW,222,0.0,0.0,100,0.00,,---,0.00,VWS V14.00,2013-04-30 08:18:00,
2013-04-30 04:23:00,56.0,56.0,29.92,SW,222,0.0,0.0,100,0.00,,---,0.00,VWS V14.00,2013-04-30 08:23:00,
2013-04-30 04:29:00,55.8,55.8,29.92,SW,222,0.0,0.0,100,0.00,,---,0.00,VWS V14.00,2013-04-30 08:29:00,
2013-04-30 04:34:00,55.7,55.7,29.92,SW,222,0.0,0.0,100,0.00,,---,0.00,VWS V14.00,2013-04-30 08:34:00,
2013-04-30 04:39:00,55.7,55.7,29.92,SW,222,0.0,0.0,100,0.00,,---,0.00,VWS V14.00,2013-04-30 08:39:00,
2013-04-30 04:44:00,55.5,55.5,29.92,SW,222,0.0,0.0,100,0.00,,---,0.00,VWS V14.00,2013-04-30 08:44:00,
2013-04-30 04:49:00,55.5,55.5,29.92,SW,222,0.0,0.0,100,0.00,,---,0.00,VWS V14.00,2013-04-30 08:49:00,
2013-04-30 04:54:00,55.3,55.3,29.92,SW,223,0.0,0.0,100,0.00,,---,0.00,VWS V14.00,2013-04-30 08:54:00,
2013-04-30 04:59:00,55.1,55.1,29.92,SW,223,0.0,0.0,100,0.00,,---,0.00,VWS V14.00,2013-04-30 08:59:00,
2013-04-30 05:04:00,55.3,55.3,29.92,SW,223,0.0,0.0,100,0.00,,---,0.00,VWS V14.00,2013-04-30 09:04:00,
2013-04-30 05:09:00,55.7,55.7,29.92,SW,223,0.0,0.0,100,0.00,,---,0.00,VWS V14.00,2013-04-30 09:09:00,
2013-04-30 05:14:00,55.7,55.7,29.92,SW,223,0.0,0.0,100,0.00,,---,0.00,VWS V14.00,2013-04-30 09:14:00,
2013-04-30 05:19:00,55.7,55.7,29.92,SW,223,0.0,0.0,100,0.00,,---,0.00,VWS V14.00,2013-04-30 09:19:00,
2013-04-30 05:24:00,55.5,55.5,29.92,SW,223,0.0,0.0,100,0.00,,---,0.00,VWS V14.00,2013-04-30 09:24:00,
2013-04-30 05:29:00,55.3,55.3,29.92,SW,223,0.0,0.0,100,0.00,,---,0.00,VWS V14.00,2013-04-30 09:29:00,
2013-04-30 05:34:00,55.3,55.3,29.92,SW,223,0.0,0.0,100,0.00,,---,0.00,VWS V14.00,2013-04-30 09:34:00,
2013-04-30 05:40:00,54.9,54.9,29.92,SW,223,0.0,0.0,100,0.00,,---,0.00,VWS V14.00,2013-04-30 09:40:00,
2013-04-30 05:45:00,54.8,54.8,29.92,SW,223,0.0,0.0,100,0.00,,---,0.00,VWS V14.00,2013-04-30 09:45:00,
2013-04-30 05:50:00,54.8,54.8,29.92,SW,223,0.0,0.0,100,0.00,,---,0.00,VWS V14.00,2013-04-30 09:50:00,
2013-04-30 05:55:00,54.8,54.8,29.92,SW,223,0.0,0.0,100,0.00,,---,0.00,VWS V14.00,2013-04-30 09:55:00,
2013-04-30 06:00:00,54.6,54.6,29.92,SW,223,0.0,0.0,100,0.00,,---,0.00,VWS V14.00,2013-04-30 10:00:00,
2013-04-30 06:05:00,54.4,54.4,29.92,SW,223,0.0,0.0,100,0.00,,---,0.00,VWS V14.00,2013-04-30 10:05:00,
2013-04-30 06:10:00,54.4,54.4,29.92,SW,223,0.0,0.0,100,0.00,,---,0.00,VWS V14.00,2013-04-30 10:10:00,
2013-04-30 06:15:00,54.2,54.2,29.92,SW,223,0.0,0.0,100,0.00,,---,0.00,VWS V14.00,2013-04-30 10:15:00,
2013-04-30 06:20:00,54.0,54.0,29.92,SW,223,0.0,0.0,100,0.00,,---,0.00,VWS V14.00,2013-04-30 10:20:00,
2013-04-30 06:25:00,54.2,54.2,29.92,SW,223,0.0,0.0,100,0.00,,---,0.00,VWS V14.00,2013-04-30 10:25:00,
2013-04-30 06:30:00,54.2,54.2,29.92,SW,223,0.0,0.0,100,0.00,,---,0.00,VWS V14.00,2013-04-30 10:30:00,
2013-04-30 06:36:00,54.2,54.2,29.92,SW,223,0.0,0.0,100,0.00,,---,0.00,VWS V14.00,2013-04-30 10:36:00,
2013-04-30 06:41:00,54.2,54.2,29.92,SW,223,0.0,0.0,100,0.00,,---,0.00,VWS V14.00,2013-04-30 10:41:00,
2013-04-30 06:46:00,54.2,54.2,29.92,SW,223,0.0,0.0,100,0.00,,---,0.00,VWS V14.00,2013-04-30 10:46:00,
2013-04-30 06:51:00,54.0,54.0,29.92,SW,223,0.0,0.0,100,0.00,,---,0.00,VWS V14.00,2013-04-30 10:51:00,
2013-04-30 06:56:00,53.9,53.9,29.92,SW,223,0.0,0.0,100,0.00,,---,0.00,VWS V14.00,2013-04-30 10:56:00,
2013-04-30 07:01:00,53.7,53.7,29.92,SW,223,0.0,0.0,100,0.00,,---,0.00,VWS V14.00,2013-04-30 11:01:00,
2013-04-30 07:06:00,53.5,53.5,29.92,SW,223,0.0,0.0,100,0.00,,---,0.00,VWS V14.00,2013-04-30 11:06:00,
2013-04-30 07:11:00,53.3,53.3,29.92,SW,223,0.0,0.0,100,0.00,,---,0.00,VWS V14.00,2013-04-30 11:11:00,
2013-04-30 07:16:00,53.5,53.5,29.92,SW,223,0.0,0.0,100,0.00,,---,0.00,VWS V14.00,2013-04-30 11:16:00,
2013-04-30 07:21:00,53.5,53.5,29.92,SW,223,0.0,0.0,100,0.00,,---,0.00,VWS V14.00,2013-04-30 11:21:00,
2013-04-30 07:27:00,53.7,53.7,29.92,SW,223,0.0,0.0,100,0.00,,---,0.00,VWS V14.00,2013-04-30 11:27:00,
2013-04-30 07:32:00,54.2,54.2,29.92,SW,223,0.0,0.0,100,0.00,,---,0.00,VWS V14.00,2013-04-30 11:32:00,
2013-04-30 07:37:00,54.9,54.9,29.92,SW,223,0.0,0.0,100,0.00,,---,0.00,VWS V14.00,2013-04-30 11:37:00,
2013-04-30 07:42:00,56.4,56.4,29.95,SW,223,0.0,0.0,100,0.00,,---,0.00,VWS V14.00,2013-04-30 11:42:00,
2013-04-30 07:47:00,57.8,57.8,29.95,SW,223,0.0,0.0,100,0.00,,---,0.00,VWS V14.00,2013-04-30 11:47:00,
2013-04-30 07:52:00,59.4,59.4,29.95,SW,223,0.0,0.0,100,0.00,,---,0.00,VWS V14.00,2013-04-30 11:52:00,
2013-04-30 07:57:00,61.2,61.2,29.95,SW,223,0.0,0.0,100,0.00,,---,0.00,VWS V14.00,2013-04-30 11:57:00,
2013-04-30 08:02:00,63.6,63.6,29.95,SW,223,0.0,0.0,100,0.00,,---,0.00,VWS V14.00,2013-04-30 12:02:00,
2013-04-30 08:07:00,65.6,65.6,29.95,SW,224,0.0,0.0,100,0.00,,---,0.00,VWS V14.00,2013-04-30 12:07:00,
2013-04-30 08:12:00,66.8,65.0,29.95,SW,224,0.0,0.0,94,0.00,,---,0.00,VWS V14.00,2013-04-30 12:12:00,
2013-04-30 08:17:00,68.1,63.4,29.95,SW,224,0.0,0.0,85,0.00,,---,0.00,VWS V14.00,2013-04-30 12:17:00,
2013-04-30 08:22:00,69.9,62.7,29.95,SW,224,0.0,0.0,78,0.00,,---,0.00,VWS V14.00,2013-04-30 12:22:00,
2013-04-30 08:28:00,71.1,59.6,29.95,NNE,17,0.0,0.0,67,0.00,,---,0.00,VWS V14.00,2013-04-30 12:28:00,
2013-04-30 08:33:00,71.5,58.3,29.95,NNE,16,0.0,0.0,63,0.00,,---,0.00,VWS V14.00,2013-04-30 12:33:00,
2013-04-30 08:38:00,72.6,59.3,29.95,NNE,16,0.0,0.0,63,0.00,,---,0.00,VWS V14.00,2013-04-30 12:38:00,
2013-04-30 08:43:00,74.0,59.7,29.95,ENE,61,0.0,0.0,61,0.00,,---,0.00,VWS V14.00,2013-04-30 12:43:00,
2013-04-30 08:48:00,75.3,58.0,29.95,ENE,58,0.0,0.0,55,0.00,,---,0.00,VWS V14.00,2013-04-30 12:48:00,
2013-04-30 08:53:00,76.2,57.8,29.95,ENE,58,0.0,0.0,53,0.00,,---,0.00,VWS V14.00,2013-04-30 12:53:00,
2013-04-30 08:58:00,77.3,58.3,29.95,SW,220,0.0,0.0,52,0.00,,---,0.00,VWS V14.00,2013-04-30 12:58:00,
2013-04-30 09:03:00,78.5,58.3,29.95,SSW,206,3.6,5.8,50,0.00,,---,0.00,VWS V14.00,2013-04-30 13:03:00,
2013-04-30 09:08:00,78.7,58.5,29.95,SSW,192,5.4,5.8,50,0.00,,---,0.00,VWS V14.00,2013-04-30 13:08:00,
2013-04-30 09:13:00,76.4,56.4,29.95,SSW,204,3.1,6.7,50,0.00,,---,0.00,VWS V14.00,2013-04-30 13:13:00,
2013-04-30 09:18:00,74.0,55.8,29.95,SSE,167,0.0,6.7,53,0.00,,---,0.00,VWS V14.00,2013-04-30 13:18:00,
2013-04-30 09:23:00,71.9,54.8,29.95,SSW,192,2.7,5.4,55,0.00,,---,0.00,VWS V14.00,2013-04-30 13:23:00,
2013-04-30 09:28:00,70.8,55.3,29.95,SSW,205,0.0,5.4,58,0.00,,---,0.00,VWS V14.00,2013-04-30 13:28:00,
2013-04-30 09:34:00,70.1,55.5,29.95,SSE,158,2.7,2.7,60,0.00,,---,0.00,VWS V14.00,2013-04-30 13:34:00,
2013-04-30 09:39:00,69.7,56.1,29.95,SSW,198,4.5,4.5,62,0.00,,---,0.00,VWS V14.00,2013-04-30 13:39:00,
2013-04-30 09:44:00,69.5,55.5,29.95,SW,224,4.0,4.0,61,0.00,,---,0.00,VWS V14.00,2013-04-30 13:44:00,
2013-04-30 09:49:00,69.7,55.7,29.95,SSW,200,4.5,6.3,61,0.00,,---,0.00,VWS V14.00,2013-04-30 13:49:00,
2013-04-30 09:54:00,69.7,55.7,29.95,SW,214,4.0,6.3,61,0.00,,---,0.00,VWS V14.00,2013-04-30 13:54:00,
2013-04-30 09:59:00,69.7,56.1,29.95,SSW,208,4.0,6.3,62,0.00,,---,0.00,VWS V14.00,2013-04-30 13:59:00,
2013-04-30 10:04:00,70.1,56.5,29.95,South,177,3.1,6.3,62,0.00,,---,0.00,VWS V14.00,2013-04-30 14:04:00,
2013-04-30 10:09:00,70.2,56.6,29.95,SW,224,4.9,6.3,62,0.00,,---,0.00,VWS V14.00,2013-04-30 14:09:00,
2013-04-30 10:14:00,70.4,56.8,29.95,SSW,194,4.0,6.3,62,0.00,,---,0.00,VWS V14.00,2013-04-30 14:14:00,
2013-04-30 10:19:00,70.8,57.1,29.95,SSW,199,3.1,6.7,62,0.00,,---,0.00,VWS V14.00,2013-04-30 14:19:00,
2013-04-30 10:24:00,71.1,57.5,29.95,SW,225,0.0,5.8,62,0.00,,---,0.00,VWS V14.00,2013-04-30 14:24:00,
2013-04-30 10:29:00,71.5,57.8,29.95,SW,228,2.7,5.8,62,0.00,,---,0.00,VWS V14.00,2013-04-30 14:29:00,
2013-04-30 10:35:00,71.9,58.2,29.95,ESE,119,2.7,4.9,62,0.00,,---,0.00,VWS V14.00,2013-04-30 14:35:00,
2013-04-30 10:40:00,72.2,58.5,29.95,South,189,3.1,3.6,62,0.00,,---,0.00,VWS V14.00,2013-04-30 14:40:00,
2013-04-30 10:45:00,72.6,58.4,29.98,SW,235,2.2,6.3,61,0.00,,---,0.00,VWS V14.00,2013-04-30 14:45:00,
2013-04-30 10:50:00,72.9,58.2,29.98,SW,231,2.2,2.2,60,0.00,,---,0.00,VWS V14.00,2013-04-30 14:50:00,
2013-04-30 10:55:00,73.5,59.2,29.98,South,190,3.6,4.0,61,0.00,,---,0.00,VWS V14.00,2013-04-30 14:55:00,
2013-04-30 11:00:00,73.8,59.1,29.98,SW,214,2.7,5.8,60,0.00,,---,0.00,VWS V14.00,2013-04-30 15:00:00,
2013-04-30 11:05:00,74.2,58.0,29.98,WSW,239,8.3,8.3,57,0.00,,---,0.00,VWS V14.00,2013-04-30 15:05:00,
2013-04-30 11:10:00,74.4,58.2,29.98,SW,223,3.6,5.4,57,0.00,,---,0.00,VWS V14.00,2013-04-30 15:10:00,
2013-04-30 11:15:00,74.6,58.3,29.98,SSW,194,0.0,5.8,57,0.00,,---,0.00,VWS V14.00,2013-04-30 15:15:00,
2013-04-30 11:20:00,74.9,59.2,29.98,West,276,3.1,3.1,58,0.00,,---,0.00,VWS V14.00,2013-04-30 15:20:00,
2013-04-30 11:25:00,75.3,57.0,29.95,WSW,247,4.5,6.3,53,0.00,,---,0.00,VWS V14.00,2013-04-30 15:25:00,
2013-04-30 11:30:00,75.5,57.7,29.95,WSW,251,2.2,4.0,54,0.00,,---,0.00,VWS V14.00,2013-04-30 15:30:00,
2013-04-30 11:36:00,75.8,57.5,29.95,WSW,239,2.7,5.8,53,0.00,,---,0.00,VWS V14.00,2013-04-30 15:36:00,
2013-04-30 11:41:00,76.0,57.1,29.98,SSE,153,4.0,5.4,52,0.00,,---,0.00,VWS V14.00,2013-04-30 15:41:00,
2013-04-30 11:46:00,76.5,58.2,29.98,SW,221,2.2,6.3,53,0.00,,---,0.00,VWS V14.00,2013-04-30 15:46:00,
2013-04-30 11:51:00,76.9,58.5,29.98,South,177,3.1,3.1,53,0.00,,---,0.00,VWS V14.00,2013-04-30 15:51:00,
2013-04-30 11:56:00,77.3,58.3,29.98,SW,216,3.6,4.9,52,0.00,,---,0.00,VWS V14.00,2013-04-30 15:56:00,
2013-04-30 12:01:00,77.6,58.1,29.98,SSW,203,2.2,6.3,51,0.00,,---,0.00,VWS V14.00,2013-04-30 16:01:00,
2013-04-30 12:06:00,77.8,58.2,29.98,SE,139,2.7,6.3,51,0.00,,---,0.00,VWS V14.00,2013-04-30 16:06:00,
2013-04-30 12:11:00,78.0,57.9,29.98,SSW,211,3.1,3.1,50,0.00,,---,0.00,VWS V14.00,2013-04-30 16:11:00,
2013-04-30 12:16:00,78.3,58.2,29.98,SW,219,6.3,6.7,50,0.00,,---,0.00,VWS V14.00,2013-04-30 16:16:00,
2013-04-30 12:21:00,78.5,58.3,29.98,SSE,159,4.0,4.9,50,0.00,,---,0.00,VWS V14.00,2013-04-30 16:21:00,
2013-04-30 12:26:00,78.7,58.5,29.95,SE,129,2.7,5.8,50,0.00,,---,0.00,VWS V14.00,2013-04-30 16:26:00,
2013-04-30 12:32:00,79.2,59.0,29.95,South,171,5.4,5.4,50,0.00,,---,0.00,VWS V14.00,2013-04-30 16:32:00,
2013-04-30 12:37:00,79.2,57.9,29.95,WSW,251,4.0,6.3,48,0.00,,---,0.00,VWS V14.00,2013-04-30 16:37:00,
2013-04-30 12:42:00,79.1,58.8,29.95,SSW,208,2.7,5.8,50,0.00,,---,0.00,VWS V14.00,2013-04-30 16:42:00,
2013-04-30 12:47:00,79.4,59.2,29.95,NW,316,0.0,5.8,50,0.00,,---,0.00,VWS V14.00,2013-04-30 16:47:00,
2013-04-30 12:52:00,79.6,58.8,29.95,NNE,29,2.7,3.1,49,0.00,,---,0.00,VWS V14.00,2013-04-30 16:52:00,
2013-04-30 12:57:00,80.0,58.5,29.95,SSE,156,3.1,3.6,48,0.00,,---,0.00,VWS V14.00,2013-04-30 16:57:00,
2013-04-30 13:02:00,80.1,56.9,29.95,SW,215,3.6,5.4,45,0.00,,---,0.00,VWS V14.00,2013-04-30 17:02:00,
2013-04-30 13:07:00,80.3,58.9,29.95,SE,132,4.0,5.4,48,0.00,,---,0.00,VWS V14.00,2013-04-30 17:07:00,
2013-04-30 13:13:00,80.7,57.4,29.95,SSW,212,4.9,5.4,45,0.00,,---,0.00,VWS V14.00,2013-04-30 17:13:00,
2013-04-30 13:18:00,80.9,57.5,29.95,West,277,2.2,5.8,45,0.00,,---,0.00,VWS V14.00,2013-04-30 17:18:00,
2013-04-30 13:23:00,80.9,59.3,29.95,ESE,107,3.1,5.8,48,0.00,,---,0.00,VWS V14.00,2013-04-30 17:23:00,
2013-04-30 13:28:00,81.4,58.7,29.95,SSE,151,2.2,5.8,46,0.00,,---,0.00,VWS V14.00,2013-04-30 17:28:00,
2013-04-30 13:33:00,81.6,58.2,29.95,ENE,58,3.1,4.0,45,0.00,,---,0.00,VWS V14.00,2013-04-30 17:33:00,
2013-04-30 13:38:00,81.4,56.8,29.95,ESE,120,3.6,5.8,43,0.00,,---,0.00,VWS V14.00,2013-04-30 17:38:00,
2013-04-30 13:43:00,81.6,56.3,29.95,South,176,4.9,7.6,42,0.00,,---,0.00,VWS V14.00,2013-04-30 17:43:00,
2013-04-30 13:48:00,82.1,56.8,29.95,SW,225,5.8,8.7,42,0.00,,---,0.00,VWS V14.00,2013-04-30 17:48:00,
2013-04-30 13:53:00,82.3,56.3,29.95,SSW,207,8.3,10.1,41,0.00,,---,0.00,VWS V14.00,2013-04-30 17:53:00,
2013-04-30 13:58:00,82.5,55.8,29.95,East,88,3.6,10.1,40,0.00,,---,0.00,VWS V14.00,2013-04-30 17:58:00,
2013-04-30 14:04:00,83.0,56.9,29.95,SSW,198,5.4,5.8,41,0.00,,---,0.00,VWS V14.00,2013-04-30 18:04:00,
2013-04-30 14:09:00,83.0,56.2,29.95,South,190,3.6,6.3,40,0.00,,---,0.00,VWS V14.00,2013-04-30 18:09:00,
2013-04-30 14:14:00,83.0,56.2,29.92,ESE,104,6.3,8.1,40,0.00,,---,0.00,VWS V14.00,2013-04-30 18:14:00,
2013-04-30 14:19:00,83.2,56.4,29.92,SSW,203,3.6,8.1,40,0.00,,---,0.00,VWS V14.00,2013-04-30 18:19:00,
2013-04-30 14:24:00,83.4,55.8,29.92,SE,128,5.4,6.3,39,0.00,,---,0.00,VWS V14.00,2013-04-30 18:24:00,
2013-04-30 14:29:00,83.7,56.2,29.92,SSE,153,4.0,7.6,39,0.00,,---,0.00,VWS V14.00,2013-04-30 18:29:00,
2013-04-30 14:34:00,83.9,57.0,29.92,South,180,4.9,5.8,40,0.00,,---,0.00,VWS V14.00,2013-04-30 18:34:00,
2013-04-30 14:39:00,84.1,56.5,29.92,SSW,206,5.8,7.6,39,0.00,,---,0.00,VWS V14.00,2013-04-30 18:39:00,
2013-04-30 14:44:00,84.1,56.5,29.92,SSW,197,4.0,8.7,39,0.00,,---,0.00,VWS V14.00,2013-04-30 18:44:00,
2013-04-30 14:49:00,84.3,56.7,29.92,SSW,211,4.0,8.7,39,0.00,,---,0.00,VWS V14.00,2013-04-30 18:49:00,
2013-04-30 14:54:00,84.5,56.8,29.92,SSW,204,3.6,10.1,39,0.00,,---,0.00,VWS V14.00,2013-04-30 18:54:00,
2013-04-30 14:59:00,84.8,57.1,29.92,SW,227,6.3,10.1,39,0.00,,---,0.00,VWS V14.00,2013-04-30 18:59:00,
2013-04-30 15:04:00,84.8,57.1,29.92,SSW,201,10.1,10.5,39,0.00,,---,0.00,VWS V14.00,2013-04-30 19:04:00,
2013-04-30 15:10:00,84.3,56.7,29.92,SSW,212,5.4,10.5,39,0.00,,---,0.00,VWS V14.00,2013-04-30 19:10:00,
2013-04-30 15:15:00,84.5,56.8,29.92,SSW,210,7.6,8.7,39,0.00,,---,0.00,VWS V14.00,2013-04-30 19:15:00,
2013-04-30 15:20:00,84.8,57.1,29.92,SSW,205,6.3,6.3,39,0.00,,---,0.00,VWS V14.00,2013-04-30 19:20:00,
2013-04-30 15:25:00,85.0,57.3,29.92,South,186,8.1,8.1,39,0.00,,---,0.00,VWS V14.00,2013-04-30 19:25:00,
2013-04-30 15:30:00,85.0,57.3,29.92,SE,134,3.6,3.6,39,0.00,,---,0.00,VWS V14.00,2013-04-30 19:30:00,
2013-04-30 15:35:00,85.2,56.7,29.92,South,190,5.4,6.3,38,0.00,,---,0.00,VWS V14.00,2013-04-30 19:35:00,
2013-04-30 15:40:00,85.5,57.0,29.92,South,178,5.4,5.4,38,0.00,,---,0.00,VWS V14.00,2013-04-30 19:40:00,
2013-04-30 15:45:00,85.7,57.2,29.92,WNW,294,6.3,8.3,38,0.00,,---,0.00,VWS V14.00,2013-04-30 19:45:00,
2013-04-30 15:50:00,85.7,57.2,29.92,SW,221,6.3,7.6,38,0.00,,---,0.00,VWS V14.00,2013-04-30 19:50:00,
2013-04-30 15:55:00,85.9,57.4,29.92,SSE,152,5.4,8.7,38,0.00,,---,0.00,VWS V14.00,2013-04-30 19:55:00,
2013-04-30 16:01:00,86.1,57.5,29.92,SSE,168,4.9,5.4,38,0.00,,---,0.00,VWS V14.00,2013-04-30 20:01:00,
2013-04-30 16:06:00,85.9,57.4,29.92,South,175,2.7,5.8,38,0.00,,---,0.00,VWS V14.00,2013-04-30 20:06:00,
2013-04-30 16:11:00,85.9,55.9,29.89,South,171,5.4,6.3,36,0.00,,---,0.00,VWS V14.00,2013-04-30 20:11:00,
2013-04-30 16:16:00,85.7,57.2,29.89,SW,227,5.8,12.3,38,0.00,,---,0.00,VWS V14.00,2013-04-30 20:16:00,
2013-04-30 16:21:00,85.5,57.0,29.89,SSE,152,3.1,5.4,38,0.00,,---,0.00,VWS V14.00,2013-04-30 20:21:00,
2013-04-30 16:26:00,86.1,57.5,29.89,SW,227,8.3,8.3,38,0.00,,---,0.00,VWS V14.00,2013-04-30 20:26:00,
2013-04-30 16:31:00,86.1,57.5,29.89,SE,129,5.4,6.3,38,0.00,,---,0.00,VWS V14.00,2013-04-30 20:31:00,
2013-04-30 16:36:00,86.1,57.5,29.89,South,185,7.6,7.6,38,0.00,,---,0.00,VWS V14.00,2013-04-30 20:36:00,
2013-04-30 16:41:00,86.1,57.5,29.89,SSW,207,5.8,6.3,38,0.00,,---,0.00,VWS V14.00,2013-04-30 20:41:00,
2013-04-30 16:47:00,86.3,57.7,29.89,South,187,5.8,10.5,38,0.00,,---,0.00,VWS V14.00,2013-04-30 20:47:00,
2013-04-30 16:52:00,86.4,57.8,29.89,SSE,166,4.9,8.3,38,0.00,,---,0.00,VWS V14.00,2013-04-30 20:52:00,
2013-04-30 16:57:00,86.8,58.2,29.89,South,174,5.4,8.7,38,0.00,,---,0.00,VWS V14.00,2013-04-30 20:57:00,
2013-04-30 17:02:00,87.2,58.5,29.89,SSW,197,6.3,11.0,38,0.00,,---,0.00,VWS V14.00,2013-04-30 21:02:00,
2013-04-30 17:07:00,88.2,59.5,29.89,SSE,161,4.0,11.0,38,0.00,,---,0.00,VWS V14.00,2013-04-30 21:07:00,
2013-04-30 17:12:00,89.0,59.3,29.89,SW,224,4.0,5.4,37,0.00,,---,0.00,VWS V14.00,2013-04-30 21:12:00,
2013-04-30 17:17:00,89.1,59.5,29.89,East,89,2.2,5.8,37,0.00,,---,0.00,VWS V14.00,2013-04-30 21:17:00,
2013-04-30 17:22:00,89.1,57.9,29.89,SSE,160,3.1,5.8,35,0.00,,---,0.00,VWS V14.00,2013-04-30 21:22:00,
2013-04-30 17:27:00,88.6,57.5,29.89,ESE,111,8.3,9.2,35,0.00,,---,0.00,VWS V14.00,2013-04-30 21:27:00,
2013-04-30 17:32:00,87.5,56.5,29.89,South,178,2.7,9.2,35,0.00,,---,0.00,VWS V14.00,2013-04-30 21:32:00,
2013-04-30 17:37:00,86.3,56.2,29.89,ESE,122,5.8,9.2,36,0.00,,---,0.00,VWS V14.00,2013-04-30 21:37:00,
2013-04-30 17:43:00,85.7,55.7,29.89,ESE,110,2.7,7.6,36,0.00,,---,0.00,VWS V14.00,2013-04-30 21:43:00,
2013-04-30 17:48:00,85.0,55.1,29.89,East,101,3.1,7.6,36,0.00,,---,0.00,VWS V14.00,2013-04-30 21:48:00,
2013-04-30 17:53:00,84.1,54.3,29.89,SE,127,2.2,6.3,36,0.00,,---,0.00,VWS V14.00,2013-04-30 21:53:00,
2013-04-30 17:58:00,83.7,54.0,29.89,ENE,76,6.3,6.7,36,0.00,,---,0.00,VWS V14.00,2013-04-30 21:58:00,
2013-04-30 18:03:00,83.4,55.1,29.89,NE,56,8.1,9.2,38,0.00,,---,0.00,VWS V14.00,2013-04-30 22:03:00,
2013-04-30 18:08:00,82.8,55.4,29.89,ESE,119,5.4,11.0,39,0.00,,---,0.00,VWS V14.00,2013-04-30 22:08:00,
2013-04-30 18:13:00,83.0,55.5,29.89,SSW,193,5.8,7.6,39,0.00,,---,0.00,VWS V14.00,2013-04-30 22:13:00,
2013-04-30 18:18:00,83.0,55.5,29.89,SSE,147,4.0,8.7,39,0.00,,---,0.00,VWS V14.00,2013-04-30 22:18:00,
2013-04-30 18:23:00,82.8,55.4,29.89,SSE,153,3.6,5.4,39,0.00,,---,0.00,VWS V14.00,2013-04-30 22:23:00,
2013-04-30 18:28:00,82.8,55.4,29.89,SE,142,5.4,6.3,39,0.00,,---,0.00,VWS V14.00,2013-04-30 22:28:00,
2013-04-30 18:33:00,83.0,55.5,29.89,South,189,3.1,7.6,39,0.00,,---,0.00,VWS V14.00,2013-04-30 22:33:00,
2013-04-30 18:38:00,83.0,55.5,29.89,East,86,6.3,8.7,39,0.00,,---,0.00,VWS V14.00,2013-04-30 22:38:00,
2013-04-30 18:43:00,82.8,55.4,29.89,East,90,3.6,4.0,39,0.00,,---,0.00,VWS V14.00,2013-04-30 22:43:00,
2013-04-30 18:49:00,82.7,55.2,29.89,ESE,108,5.8,6.3,39,0.00,,---,0.00,VWS V14.00,2013-04-30 22:49:00,
2013-04-30 18:54:00,83.0,55.5,29.89,NNE,13,6.3,6.3,39,0.00,,---,0.00,VWS V14.00,2013-04-30 22:54:00,
2013-04-30 18:59:00,83.2,55.7,29.89,SSE,158,4.9,6.3,39,0.00,,---,0.00,VWS V14.00,2013-04-30 22:59:00,
2013-04-30 19:04:00,82.8,55.4,29.89,ESE,119,2.7,4.9,39,0.00,,---,0.00,VWS V14.00,2013-04-30 23:04:00,
2013-04-30 19:09:00,82.7,55.9,29.89,SSE,154,4.0,6.3,40,0.00,,---,0.00,VWS V14.00,2013-04-30 23:09:00,
2013-04-30 19:14:00,83.0,56.2,29.89,SE,130,3.6,5.8,40,0.00,,---,0.00,VWS V14.00,2013-04-30 23:14:00,
2013-04-30 19:19:00,83.2,56.4,29.89,SSE,156,3.1,6.3,40,0.00,,---,0.00,VWS V14.00,2013-04-30 23:19:00,
2013-04-30 19:24:00,83.2,56.4,29.89,ESE,102,3.1,6.3,40,0.00,,---,0.00,VWS V14.00,2013-04-30 23:24:00,
2013-04-30 19:29:00,82.8,56.1,29.89,East,85,4.0,7.2,40,0.00,,---,0.00,VWS V14.00,2013-04-30 23:29:00,
2013-04-30 19:34:00,81.6,55.0,29.89,SSE,164,3.1,5.4,40,0.00,,---,0.00,VWS V14.00,2013-04-30 23:34:00,
2013-04-30 19:39:00,80.7,54.8,29.89,SE,131,3.6,5.4,41,0.00,,---,0.00,VWS V14.00,2013-04-30 23:39:00,
2013-04-30 19:44:00,80.0,54.8,29.89,ESE,116,0.0,5.4,42,0.00,,---,0.00,VWS V14.00,2013-04-30 23:44:00,
2013-04-30 19:50:00,79.4,55.0,29.89,East,81,4.0,5.4,43,0.00,,---,0.00,VWS V14.00,2013-04-30 23:50:00,
2013-04-30 19:55:00,78.9,54.5,29.89,SE,126,4.0,4.9,43,0.00,,---,0.00,VWS V14.00,2013-04-30 23:55:00,
2013-04-30 20:00:00,78.5,54.8,29.89,SSE,152,2.2,4.9,44,0.00,,---,0.00,VWS V14.00,2013-05-01 00:00:00,
2013-04-30 20:05:00,77.8,54.8,29.89,SE,139,0.0,5.4,45,0.00,,---,0.00,VWS V14.00,2013-05-01 00:05:00,
2013-04-30 20:10:00,77.1,55.3,29.89,East,79,0.0,0.0,47,0.00,,---,0.00,VWS V14.00,2013-05-01 00:10:00,
2013-04-30 20:15:00,76.7,55.0,29.92,NNE,29,0.0,3.6,47,0.00,,---,0.00,VWS V14.00,2013-05-01 00:15:00,
2013-04-30 20:20:00,76.5,54.8,29.92,SSE,157,2.2,2.7,47,0.00,,---,0.00,VWS V14.00,2013-05-01 00:20:00,
2013-04-30 20:25:00,76.0,54.9,29.92,NE,38,0.0,3.1,48,0.00,,---,0.00,VWS V14.00,2013-05-01 00:25:00,
2013-04-30 20:30:00,75.6,55.7,29.92,ENE,77,2.7,3.6,50,0.00,,---,0.00,VWS V14.00,2013-05-01 00:30:00,
2013-04-30 20:35:00,75.1,55.8,29.92,ESE,108,0.0,3.6,51,0.00,,---,0.00,VWS V14.00,2013-05-01 00:35:00,
2013-04-30 20:40:00,74.7,55.4,29.92,ESE,110,0.0,2.7,51,0.00,,---,0.00,VWS V14.00,2013-05-01 00:40:00,
2013-04-30 20:45:00,74.4,55.1,29.92,SE,129,0.0,3.6,51,0.00,,---,0.00,VWS V14.00,2013-05-01 00:45:00,
2013-04-30 20:51:00,73.7,55.0,29.92,ENE,64,2.7,3.1,52,0.00,,---,0.00,VWS V14.00,2013-05-01 00:51:00,
2013-04-30 20:56:00,73.3,54.6,29.92,SSE,154,2.2,3.6,52,0.00,,---,0.00,VWS V14.00,2013-05-01 00:56:00,
2013-04-30 21:01:00,72.8,54.7,29.92,ESE,108,0.0,2.7,53,0.00,,---,0.00,VWS V14.00,2013-05-01 01:01:00,
2013-04-30 21:06:00,72.6,54.5,29.92,ESE,107,0.0,3.1,53,0.00,,---,0.00,VWS V14.00,2013-05-01 01:06:00,
2013-04-30 21:11:00,72.0,54.5,29.92,ENE,75,0.0,2.2,54,0.00,,---,0.00,VWS V14.00,2013-05-01 01:11:00,
2013-04-30 21:16:00,71.7,54.2,29.92,ENE,73,0.0,3.1,54,0.00,,---,0.00,VWS V14.00,2013-05-01 01:16:00,
2013-04-30 21:21:00,71.5,54.0,29.92,NNE,33,0.0,0.0,54,0.00,,---,0.00,VWS V14.00,2013-05-01 01:21:00,
2013-04-30 21:26:00,71.1,54.2,29.89,South,172,0.0,2.2,55,0.00,,---,0.00,VWS V14.00,2013-05-01 01:26:00,
2013-04-30 21:31:00,70.6,53.7,29.89,ESE,110,3.6,3.6,55,0.00,,---,0.00,VWS V14.00,2013-05-01 01:31:00,
2013-04-30 21:36:00,70.2,53.8,29.89,SE,136,0.0,4.9,56,0.00,,---,0.00,VWS V14.00,2013-05-01 01:36:00,
2013-04-30 21:41:00,70.2,53.8,29.92,ESE,123,2.7,4.0,56,0.00,,---,0.00,VWS V14.00,2013-05-01 01:41:00,
2013-04-30 21:47:00,69.9,53.5,29.92,East,93,0.0,4.0,56,0.00,,---,0.00,VWS V14.00,2013-05-01 01:47:00,
2013-04-30 21:52:00,69.9,54.0,29.92,ENE,62,0.0,0.0,57,0.00,,---,0.00,VWS V14.00,2013-05-01 01:52:00,
2013-04-30 21:57:00,69.7,53.3,29.92,East,80,3.1,3.1,56,0.00,,---,0.00,VWS V14.00,2013-05-01 01:57:00,
2013-04-30 22:02:00,69.5,53.6,29.92,NNE,24,0.0,3.6,57,0.00,,---,0.00,VWS V14.00,2013-05-01 02:02:00,
2013-04-30 22:07:00,69.5,53.6,29.92,East,85,0.0,3.6,57,0.00,,---,0.00,VWS V14.00,2013-05-01 02:07:00,
2013-04-30 22:12:00,69.3,53.5,29.92,East,80,2.7,3.1,57,0.00,,---,0.00,VWS V14.00,2013-05-01 02:12:00,
2013-04-30 22:17:00,69.2,53.3,29.92,ENE,58,0.0,3.6,57,0.00,,---,0.00,VWS V14.00,2013-05-01 02:17:00,
2013-04-30 22:22:00,68.8,53.4,29.92,East,84,3.1,3.6,58,0.00,,---,0.00,VWS V14.00,2013-05-01 02:22:00,
2013-04-30 22:27:00,68.6,53.3,29.92,East,80,3.6,4.9,58,0.00,,---,0.00,VWS V14.00,2013-05-01 02:27:00,
2013-04-30 22:32:00,68.6,53.3,29.92,East,81,2.7,3.1,58,0.00,,---,0.00,VWS V14.00,2013-05-01 02:32:00,
2013-04-30 22:38:00,68.4,53.6,29.92,NE,56,0.0,3.6,59,0.00,,---,0.00,VWS V14.00,2013-05-01 02:38:00,
2013-04-30 22:43:00,68.1,53.7,29.92,NE,45,2.7,3.1,60,0.00,,---,0.00,VWS V14.00,2013-05-01 02:43:00,
2013-04-30 22:48:00,67.9,53.5,29.92,ENE,71,0.0,3.1,60,0.00,,---,0.00,VWS V14.00,2013-05-01 02:48:00,
2013-04-30 22:53:00,67.4,53.5,29.92,ENE,58,0.0,0.0,61,0.00,,---,0.00,VWS V14.00,2013-05-01 02:53:00,
2013-04-30 22:58:00,67.0,53.6,29.92,East,83,0.0,2.7,62,0.00,,---,0.00,VWS V14.00,2013-05-01 02:58:00,
2013-04-30 23:03:00,66.8,54.3,29.92,ENE,78,3.6,3.6,64,0.00,,---,0.00,VWS V14.00,2013-05-01 03:03:00,
2013-04-30 23:08:00,66.6,54.1,29.92,ENE,67,2.7,4.0,64,0.00,,---,0.00,VWS V14.00,2013-05-01 03:08:00,
2013-04-30 23:13:00,66.6,54.1,29.95,ENE,71,0.0,3.6,64,0.00,,---,0.00,VWS V14.00,2013-05-01 03:13:00,
2013-04-30 23:18:00,66.5,53.9,29.95,ESE,116,2.7,3.6,64,0.00,,---,0.00,VWS V14.00,2013-05-01 03:18:00,
2013-04-30 23:23:00,66.5,54.3,29.95,NE,42,2.7,4.9,65,0.00,,---,0.00,VWS V14.00,2013-05-01 03:23:00,
2013-04-30 23:29:00,66.3,54.2,29.95,ENE,59,0.0,4.9,65,0.00,,---,0.00,VWS V14.00,2013-05-01 03:29:00,
2013-04-30 23:34:00,66.1,54.0,29.95,ENE,73,0.0,3.1,65,0.00,,---,0.00,VWS V14.00,2013-05-01 03:34:00,
2013-04-30 23:39:00,66.1,54.0,29.95,SE,138,2.2,3.6,65,0.00,,---,0.00,VWS V14.00,2013-05-01 03:39:00,
2013-04-30 23:44:00,66.3,53.8,29.95,East,86,0.0,4.0,64,0.00,,---,0.00,VWS V14.00,2013-05-01 03:44:00,
2013-04-30 23:49:00,66.3,53.8,29.95,East,94,2.2,4.0,64,0.00,,---,0.00,VWS V14.00,2013-05-01 03:49:00,
2013-04-30 23:54:00,66.1,53.6,29.95,East,84,0.0,3.6,64,0.00,,---,0.00,VWS V14.00,2013-05-01 03:54:00,
2013-04-30 23:59:00,66.1,53.6,29.95,ESE,110,3.6,4.9,64,0.00,,---,0.00,VWS V14.00,2013-05-01 03:59:00,